{"data":{"norad_id":67266,"intl_designator":"2025-313U","name":"SITRO-AIS-65","alt_names":[],"object_type":"PAYLOAD","status":"ACTIVE","operator":null,"country":"CIS","launch_date":"2025-12-28","launch_site_code":"VOSTO","launch_vehicle":null,"mission":null,"orbit_class":"UNKNOWN","rcs_meters":null,"size_class":null,"mass_kg":null,"dimensions":null,"purposes":[],"wikipedia_slug":null,"has_3d_model":false,"image_url":null,"decayed_at":null,"tle_current":{"epoch":"2026-05-24T22:11:34.784160Z","epoch_age_seconds":77581,"freshness":"FRESH","line1":"1 67266U 25313U   26144.92470815  .00008494  00000+0  36321-3 0  9996","line2":"2 67266  97.3962 220.0174 0016060  87.1397 273.1677 15.22964599 22413","mean_motion":15.22964599,"eccentricity":0.001606,"inclination_deg":97.3962,"raan_deg":220.0174,"arg_perigee_deg":87.1397,"mean_anomaly_deg":273.1677,"bstar":0.00036321,"rev_number":2241,"period_min":94.552427610302,"perigee_km":485.8628412956,"apogee_km":507.94547349315,"semimajor_km":6875.0411573944,"source":"CELESTRAK","updated_at":"2026-05-25T13:38:06.848816Z"}}}